Regional Weather Roundup
Issued by NWS

Home | Current Version | Previous Version | Graphics & Text | Print | Product List | Glossary On
Versions: 1 2 3 4 5 6 7 8 9 10 11 12 13 14 15 16 17 18 19 20 21 22 23 24 25 26 27 28 29 30 31 32 33 34 35 36 37 38 39 40 41 42 43 44 45 46 47 48 49 50
000
ASUS43 KMPX 260010
RWRMN
WEATHER ROUNDUP FOR MINNESOTA
NATIONAL WEATHER SERVICE TWIN CITIES/CHANHASSEN MN
700 PM CDT SAT OCT 25 2014


NOTE: "FAIR" INDICATES FEW OR NO CLOUDS BELOW 12,000 FEET WITH NO
SIGNIFICANT WEATHER AND/OR OBSTRUCTIONS TO VISIBILITY. N/A MEANS
CURRENT SKY AND/OR WEATHER CONDITIONS ARE NOT AVAILABLE.

MNZ060>063-068>070-260100-
   Twin Cities Metro

CITY           SKY/WX    TMP DP  RH WIND       PRES   REMARKS
TWIN CITIES    CLEAR     54  25  32 W9        30.04S
6HR MIN TEMP:  54; 6HR MAX TEMP:  63;

ST PAUL        CLEAR     57  25  29 NW14      30.04R
CRYSTAL        CLEAR     56  25  30 W8        30.03S
BLAINE         CLEAR     54  27  35 W7        30.04R
LAKEVILLE      CLEAR     52  27  37 W5        30.05R
EDEN PRAIRIE   CLEAR     56  25  30 W7        30.04S
6HR MIN TEMP:  55; 6HR MAX TEMP:  64;

SOUTH ST PAUL  CLEAR     58  23  26 NW8       30.03S
LAKE ELMO      FAIR      54  28  37 NW6       30.04S
$$
MNZ001>005-007-008-013>017-022>024-027-028-260100-
   Northwest Minnesota

CITY           SKY/WX    TMP DP  RH WIND       PRES   REMARKS
BEMIDJI        CLEAR     46  23  41 W7        30.02S
HALLOCK        CLEAR     52  19  28 NW5       30.00S
ROSEAU         CLEAR     50  28  43 W7        29.99S
WARROAD        CLEAR     48  28  46 W5        29.99S
THIEF RVR FALL CLEAR     52  25  35 W5        30.02F
CROOKSTON      CLEAR     48  27  43 W7        30.03F
FOSSTON        CLEAR     43  23  45 CALM      30.04F
DETROIT LAKES  CLEAR     50  27  40 W5        30.06F
MOORHEAD       CLEAR     52  16  24 CALM      30.06F
PARK RAPIDS    CLEAR     44  23  43 NW8       30.04S
MAHNOMEN       FAIR      47  24  39 W6        30.03F
$$
MNZ006-009>011-018-025>026-260100-
   North Central Minnesota

CITY           SKY/WX    TMP DP  RH WIND       PRES   REMARKS
BAUDETTE       CLEAR     49  26  41 VRB5      29.97S
FLAG ISLAND    CLEAR     50  30  46 W7        29.95S
INTL FALLS     CLEAR     46  28  49 W6        29.94S
6HR MIN TEMP:  46; 6HR MAX TEMP:  54;

WASKISH        CLEAR     48  37  66 CALM      29.99F
BIG FORK       CLEAR     52  23  32 W6        29.99S
LONGVILLE      CLEAR     46  27  46 W3        30.02S
GRAND RAPIDS   CLEAR     50  25  37 W10       30.00S
CRANE LAKE     CLEAR     48  27  43 W3        29.95S
ORR            CLEAR     48  23  37 W10G16    29.93R
COOK           CLEAR     48  27  43 W9        29.96R
WALKER         FAIR      49  25  39 W5        30.02F
$$
MNZ012-019>021-037-260100-
   Northeast Minnesota

CITY           SKY/WX    TMP DP  RH WIND       PRES   REMARKS
DULUTH         CLEAR     51  26  37 W14       29.95S
6HR MIN TEMP:  51; 6HR MAX TEMP:  59;

ELY            CLEAR     48  25  40 W14G22    29.92R
HIBBING        CLEAR     51  24  34 W8G18     29.97R
EVELETH        CLEAR     50  27  40 W12       29.97R
DULUTH HARBOR  CLEAR     55  28  35 W13G20    29.97R
TWO HARBORS    CLEAR     55   7  14 W10G17    29.92R
SILVER BAY     CLEAR     52  25  35 W6        29.91R
GRAND MARAIS     N/A     51  29  42 VRB7      29.84R
G MARAIS ARPRT CLEAR     45  27  49 W13G20    29.85R
$$
MNZ029>031-032-039>041-046>048-054>057-064-260100-
   West Central Minnesota

CITY           SKY/WX    TMP DP  RH WIND       PRES   REMARKS
FERGUS FALLS   CLEAR     52  19  28 NW5       30.07F
WHEATON        CLEAR     52  27  37 CALM      30.09S
MORRIS         CLEAR     54  27  35 NW3       30.07S
ALEXANDRIA     CLEAR     51  25  36 W3        30.08S
ELBOW LAKE     FAIR      49  32  52 N3        30.06F
WADENA         CLEAR     46  27  46 W3        30.05F
GLENWOOD       CLEAR     48  28  46 W6        30.08S
APPLETON       CLEAR     52  28  40 CALM      30.08S
BENSON         CLEAR     52  28  40 N3        30.08F
ORTONVILLE     CLEAR     52  27  37 CALM      30.08S
MADISON        CLEAR     55  28  35 N5        30.08F
WILLMAR        FAIR      54  25  32 NW5       30.09S
$$
MNZ033>034-036-042>043-049>051-058-059-260100-
   Central Minnesota

CITY           SKY/WX    TMP DP  RH WIND       PRES   REMARKS
ST CLOUD       CLEAR     51  27  39 W8        30.05S
6HR MIN TEMP:  50; 6HR MAX TEMP:  66;

SAUK CENTRE    FAIR      48  27  44 W5        30.07S
PAYNESVILLE    CLEAR     48  25  40 SW3       30.07F
AITKIN         CLEAR     52  19  28 CALM      30.01S
PINE RIVER     CLEAR     52  27  37 NW6       30.06S
BRAINERD       CLEAR     52  24  33 W8        30.04S
STAPLES        CLEAR     45  27  49 W7        30.05S
LONG PRAIRIE   FAIR      50  27  40 W5        30.07S
LITTLE FALLS   CLEAR     48  27  43 CALM      30.06R
LITCHFIELD     CLEAR     55  27  33 W5        30.08S
BUFFALO        CLEAR     54  25  32 W6        30.06S
MAPLE LAKE     CLEAR     52  30  43 W5        30.07S
$$
MNZ037-044-045-052-053-260100-
   East Central Minnesota

CITY           SKY/WX    TMP DP  RH WIND       PRES   REMARKS
PRINCETON      CLEAR     52  28  40 W5        30.05R
MORA           CLEAR     50  23  34 W6        30.04S
CAMBRIDGE      CLEAR     55  34  44 W5        30.02S
RUSH CITY      MOCLDY    49  25  38 W3        30.02S
MOOSE LAKE     CLEAR     52  27  37 NW7       29.99R
HINCKLEY       FAIR      52  27  37 CALM      30.01S
CLOQUET        CLEAR     52  19  28 W9        29.98R
MCGREGOR       CLEAR     52  25  35 NW7       30.02R
$$
MNZ071>073-080-081-089-090-097-098-260100-
   Southwest Minnesota

CITY           SKY/WX    TMP DP  RH WIND       PRES   REMARKS
MONTEVIDEO     CLEAR     54  28  37 CALM      30.09S
GRANITE FALLS  CLEAR     52  31  45 CALM      30.09F
CANBY          CLEAR     53  32  45 CALM      30.09F
MARSHALL       CLEAR     55  28  35 NE5       30.08S
REDWOOD FALLS  CLEAR     57  29  34 NW5       30.08F
OLIVIA         CLEAR     52  32  46 CALM      30.08S
PIPESTONE      CLEAR     55  30  38 E3        30.08S
WINDOM         CLEAR     52  30  43 NW5       30.09S
WORTHINGTON    CLEAR     54  28  37 NE7       30.09F
JACKSON        CLEAR     52  30  43 CALM      30.09F
TRACY          CLEAR     55  31  39 N5        30.09S
SLAYTON        CLEAR     55  29  37 CALM      30.10S
$$
MNZ065>067-074>077-082>085-091>093-260100-
   South Central Minnesota

CITY           SKY/WX    TMP DP  RH WIND       PRES   REMARKS
MANKATO        CLEAR     55  27  33 NW8       30.07S
NEW ULM        CLEAR     54  30  40 NW6       30.08S
ST JAMES       CLEAR     52  28  40 NW3       30.09S
FAIRMONT       CLEAR     54  10  17 NW6       30.08S
GLENCOE        CLEAR     54  28  36 W6        30.07S
FARIBAULT      CLEAR     50  28  43 W6        30.06S
OWATONNA       CLEAR     52  28  40 CALM      30.06S
WASECA         CLEAR     50  25  37 W6        30.08S
ALBERT LEA     CLEAR     55  30  38 NW5       30.06S
$$
MNZ078>079-086>088-094>096-260100-
   Southeast Minnesota

CITY           SKY/WX    TMP DP  RH WIND       PRES   REMARKS
ROCHESTER      CLEAR     52  30  43 W6        30.05S
6HR MIN TEMP:  52; 6HR MAX TEMP:  64;

RED WING       CLEAR     55  25  30 NW6       30.01S
STANTON        CLEAR     52  26  36 W8        30.03S
DODGE CENTER   CLEAR     54  30  40 NW9       30.05S
WINONA         CLEAR     59  30  33 W7        30.01S
AUSTIN         CLEAR     54  32  43 NW8       30.06S
PRESTON        CLEAR     50  30  46 W8        30.04S
$$
ABBREVIATIONS USED IN REMARKS
   TC - TEMPERATURES IN CELSIUS
  WCI - WIND CHILL INDEX
   HX - HEAT INDEX
  VSB - VISIBILITY
$$



USA.gov is the U.S. government's official web portal to all federal, state and local government web resources and services.